This is the latest recevied weather packets stored in our database for station/object KSUZ. If no packets are shown the sender has not sent any weather packets the latest 10 day(s).
| Time | Temp. | Humidity | Pressure | Rain* | Wind** | Luminosity | Snow |
|---|---|---|---|---|---|---|---|
| 1777584219 | 17.78° C | 52% | 1015.2 hPa | - | - | - | - |
| 1777583621 | 18.89° C | 48% | 1015.2 hPa | - | - | - | - |
| 1777583023 | 18.89° C | 48% | 1015.2 hPa | - | - | - | - |
| 1777582425 | 18.89° C | 52% | 1015.9 hPa | - | - | - | - |
| 1777581821 | 18.89° C | 52% | 1015.9 hPa | - | - | - | - |
| 1777581221 | 17.78° C | 52% | 1015.9 hPa | - | - | - | - |
| 1777580623 | 17.78° C | 52% | 1015.9 hPa | - | - | - | - |
| 1777580019 | 17.78° C | 52% | 1015.9 hPa | - | - | - | - |
| 1777579421 | 17.78° C | 52% | 1015.9 hPa | - | - | - | - |
| 1777578823 | 17.78° C | 55% | 1016.3 hPa | - | - | - | - |
| 1777578222 | 17.78° C | 55% | 1016.3 hPa | - | - | - | - |
| 1777577625 | 17.78° C | 55% | 1015.9 hPa | - | - | - | - |
| 1777577019 | 17.78° C | 55% | 1015.9 hPa | - | - | - | - |
| 1777576422 | 18.89° C | 48% | 1016.3 hPa | - | - | - | - |
| 1777575821 | 18.89° C | 48% | 1016.3 hPa | - | - | - | - |
| 1777575223 | 18.89° C | 52% | 1016.3 hPa | - | - | - | - |
| 1777574617 | 18.89° C | 52% | 1016.3 hPa | - | - | - | - |
| 1777574023 | 17.78° C | 55% | 1016.3 hPa | - | - | - | - |
| 1777573419 | 17.78° C | 55% | 1016.3 hPa | - | - | - | - |
| 1777572821 | 17.78° C | 55% | 1016.9 hPa | - | - | - | - |
| 1777572221 | 17.78° C | 55% | 1016.9 hPa | - | - | - | - |
| 1777571623 | 17.78° C | 55% | 1017.3 hPa | - | - | - | - |
| 1777571023 | 17.78° C | 55% | 1017.3 hPa | - | - | - | - |
| 1777570421 | 18.89° C | 52% | 1017.6 hPa | - | - | - | - |
| 1777569819 | 18.89° C | 52% | 1017.6 hPa | - | - | - | - |
* Rain since midnight (hover to see other rain measurements)
** Current wind speed in m/s (hover to see current wind gust speed)